Location: Noulens
(43.8099°N, 0.1664°E)
Time: 06:07:09
(UTC+00:00)

STARLINK-48 - Pass Details

Date: 07 June 2020
Orbit: 505 x 506 km, 53.0° (Epoch: 04 July)

Event Time Altitude Azimuth Distance (km) Brightness Sun altitude
Exits shadow 01:53:44 30° 266° (W) 931 4.5 -18.3°
Maximum altitude 01:55:24 55° 330° (NNW) 613 4.0 -18.2°
Drops below altitude 10° 01:59:14 10° 50° (NE) 1,722 7.2 -17.9°
Sets 02:01:28 0° 54° (NE) 2,609 8.3 -17.7°
